Temperature
17 17 17 17 17 17 17 17 17 17 17 17 17 17 17 17 17 17 17 17 17 16 16 16 16 16 16 16 16 16 16 16 16 15 15 15 15 15 15 15 14 14 14
17 17 17 17 17 17 17 17 17 17 17 17 17 17 17 17 17 17 16 16 16 16 16 16 16 16 16 16 16 16 16 15 15 15 15 14 14 14 14 14 14 14 14
17 17 17 17 17 17 17 17 17 17 17 17 17 17 17 16 16 16 16 16 16 16 16 16 16 16 16 16 16 16 15 15 15 15 14 14 14 14 14 14 14 14 14
17 17 17 17 17 17 17 17 17 17 17 17 17 17 17 16 16 16 16 16 16 16 16 16 16 16 16 16 15 15 15 15 15 14 14 13 13 14 14 14 14 14 13
16 16 17 17 17 17 17 17 16 17 17 17 17 16 16 16 16 16 16 16 16 16 16 16 16 16 15 15 15 15 15 15 15 14 14 13 13 13 13 13 13 13 13
16 16 17 17 17 17 16 16 16 16 16 16 16 16 16 16 16 16 16 16 16 16 16 16 15 15 15 15 15 15 14 14 14 13 13 13 13 13 13 13 13 13 13
16 16 16 16 16 16 16 16 16 16 16 16 16 16 16 16 16 16 16 16 16 16 15 15 15 15 15 15 15 14 14 14 13 13 13 13 13 13 13 13 13 13 13
16 16 16 16 16 16 16 16 16 16 16 16 16 16 16 16 16 16 16 15 15 15 15 15 15 15 14 14 14 14 14 14 13 13 12 12 13 13 12 12 12 12 12
15 15 16 16 16 16 16 16 16 16 16 16 16 16 16 16 16 15 15 15 15 15 15 15 15 14 14 14 14 14 14 13 12 12 12 12 12 12 12 12 12 12 12
15 15 15 15 15 15 15 16 16 16 16 16 16 16 15 15 15 15 15 15 15 15 15 15 14 14 14 14 14 13 13 13 12 12 12 12 12 12 12 12 12 12 12
15 15 15 15 15 15 15 15 15 15 15 15 15 15 15 15 15 15 15 15 15 15 15 14 14 14 14 13 13 13 13 12 12 12 12 12 12 11 12 12 12 12 12
15 15 15 15 15 15 15 15 15 15 15 15 15 15 15 15 15 15 14 14 14 14 14 14 14 13 13 13 13 13 12 12 12 11 11 12 11 11 11 11 11 11 11
15 15 15 15 15 15 15 15 15 15 15 15 15 15 15 15 14 14 14 14 14 14 14 14 13 13 13 13 12 12 12 12 11 11 11 11 11 11 11 11 11 11 11
14 15 14 15 15 15 14 14 14 14 14 14 14 14 14 14 14 14 14 14 14 14 14 13 13 13 12 12 12 12 12 11 11 11 11 11 11 11 11 11 11 11 11
14 14 14 14 14 14 14 14 14 14 14 14 14 14 14 14 14 14 14 14 14 13 13 13 13 12 12 12 12 12 11 11 11 11 11 11 11 11 11 10 10 10 10
14 14 14 14 14 14 14 14 14 14 14 14 14 14 14 14 14 13 13 13 13 13 13 13 12 12 12 12 12 11 11 11 11 11 11 11 11 11 10 10 10 10 10
14 14 14 14 14 14 14 14 14 14 14 14 14 14 13 13 13 13 13 13 13 13 13 12 12 12 12 12 11 11 11 11 11 11 10 10 10 10 10 10 10 10 10
13 13 13 13 13 14 13 13 13 13 13 13 13 13 13 13 13 13 13 13 12 12 12 12 12 12 11 11 11 11 11 11 10 10 10 10 10 10 10 10 10 10 10
12 13 13 13 13 13 13 13 13 13 13 13 13 13 13 13 13 12 12 12 12 12 12 12 11 11 11 11 11 11 10 10 10 10 10 10 10 9 9 9 9 9 9
12 12 12 12 12 13 13 13 12 12 12 12 12 12 12 12 12 12 12 12 12 12 11 11 11 11 11 10 10 10 10 10 10 10 9 9 9 9 9 9 9 9 9
12 12 12 12 12 12 12 12 12 12 12 12 12 12 12 12 12 12 11 11 11 11 11 11 11 10 10 10 10 9 9 9 9 9 9 9 9 8 8 8 8 8 8
12 12 12 12 12 12 12 12 12 12 11 11 11 11 11 11 11 11 11 11 11 11 10 10 10 10 10 9 9 9 9 9 9 9 9 9 8 8 8 8 8 8 8
11 11 11 11 11 11 11 11 11 11 11 11 11 11 11 11 11 11 10 10 10 10 10 10 10 10 9 9 9 8 8 9 8 8 8 8 8 8 8 8 7 7 7
11 11 11 11 11 11 11 11 11 11 11 11 11 11 10 10 10 10 10 10 10 10 9 9 9 9 9 9 9 8 8 8 7 7 7 7 7 7 7 7 7 7 7
10 10 10 11 11 11 11 11 11 10 10 10 10 10 10 10 10 10 10 9 9 9 9 9 9 9 8 8 8 8 8 7 7 6 7 7 7 7 7 7 7 6 6
9 10 10 10 10 10 10 10 10 10 10 10 9 10 9 9 9 9 9 9 9 9 9 9 8 8 8 8 8 7 7 7 6 6 6 6 6 6 6 6 6 6 6
Wind_Speed
10 13 16 15 16 16 16 16 17 17 17 16 16 16 16 15 15 15 15 15 15 15 16 16 15 15 15 15 15 15 15 15 15 15 15 15 15 14 14 12 11 13 14
14 15 17 16 17 16 17 17 16 16 16 16 16 16 15 15 15 15 15 15 15 15 15 15 15 15 15 15 15 14 14 14 13 13 12 13 14 14 14 14 13 13 13
15 16 18 17 17 17 17 17 17 17 16 16 16 15 15 15 15 15 15 15 15 15 14 14 14 14 14 14 14 13 13 12 12 9 8 10 12 13 13 13 13 13 12
15 16 17 18 17 17 17 17 17 17 16 15 15 15 15 14 14 15 15 15 14 14 14 14 13 13 13 13 13 13 12 11 10 7 8 10 10 12 12 12 12 11 11
15 16 17 18 18 17 17 17 17 16 16 15 15 15 14 14 14 14 14 14 14 14 13 13 13 12 12 12 12 12 11 10 8 8 9 9 10 11 11 11 11 11 11
15 16 17 18 18 17 17 17 16 15 15 15 15 14 14 14 14 14 13 13 13 13 13 13 12 12 12 11 11 11 10 8 6 9 9 9 9 11 10 10 10 9 9
15 15 18 17 17 17 16 16 16 15 15 14 14 14 14 14 14 13 13 13 13 13 12 12 12 12 11 11 10 10 9 7 7 8 8 9 9 10 9 9 8 8 8
14 14 17 17 16 16 16 16 15 15 15 14 14 14 13 13 13 13 13 13 12 12 12 12 11 11 11 10 10 9 7 5 6 7 8 8 9 8 8 8 8 7 7
13 13 14 15 16 15 15 15 15 15 14 14 14 14 13 13 13 12 12 12 11 11 11 11 11 11 10 10 9 8 7 5 5 6 6 7 8 7 7 7 7 6 6
12 12 13 14 14 14 14 14 15 14 14 14 14 13 13 13 12 11 11 11 11 10 10 10 10 10 9 9 8 7 5 3 5 5 5 7 7 6 6 6 6 6 6
11 10 11 12 12 13 13 14 14 14 14 14 13 13 12 10 10 9 10 10 10 9 9 9 9 9 9 8 7 5 3 3 5 5 5 7 6 6 6 6 6 6 6
11 11 10 11 11 12 11 12 11 11 12 11 10 11 9 8 8 8 10 10 9 9 9 8 8 7 5 5 5 3 3 3 3 4 6 7 6 5 5 6 6 6 6
11 10 9 10 11 10 9 9 8 8 9 9 9 9 8 7 7 7 7 7 7 7 6 6 5 3 3 3 2 2 2 2 3 3 5 6 5 5 5 6 6 6 6
10 10 9 10 9 10 9 7 7 7 7 7 8 9 7 5 5 5 5 5 4 4 4 3 2 3 3 2 2 2 2 2 2 2 4 6 5 5 6 6 6 7 7
9 9 9 9 9 9 8 7 6 6 7 7 7 7 7 5 5 5 4 4 4 3 3 2 2 2 2 1 1 1 1 1 1 1 3 5 6 5 6 6 6 7 7
8 8 8 8 8 8 7 6 6 6 7 7 6 6 6 6 5 5 4 3 3 3 2 2 2 1 1 1 1 0 0 1 1 1 1 3 5 5 6 6 7 7 7
8 8 8 8 8 8 7 7 6 6 7 6 6 6 6 5 5 5 3 3 2 2 3 2 2 1 1 1 1 0 0 0 0 0 1 1 2 4 5 6 6 7 7
7 8 7 7 8 8 7 6 5 6 6 5 6 6 6 6 5 4 3 3 3 2 2 2 2 1 1 1 1 1 0 0 0 0 1 1 2 2 4 5 6 7 8
7 7 7 7 8 7 7 6 6 6 5 5 5 5 5 5 5 4 3 3 3 2 2 2 1 1 1 0 0 1 1 1 1 1 0 1 1 2 3 3 4 5 7
6 6 7 7 7 7 6 5 5 5 4 4 4 4 5 5 5 4 3 3 3 2 2 2 1 1 0 0 0 1 1 1 1 1 0 0 1 2 3 4 3 4 5
6 6 7 7 7 6 5 5 5 4 4 3 3 4 5 5 5 4 3 3 2 2 2 2 2 1 0 0 1 1 1 2 2 1 1 1 1 2 3 3 4 4 4
7 7 6 7 7 7 6 5 3 4 3 3 3 4 4 5 5 4 3 3 2 2 2 2 2 1 1 1 2 2 2 3 2 2 2 2 2 2 3 4 4 4 5
5 6 6 7 7 7 7 5 5 4 3 2 3 3 3 4 5 4 4 3 2 2 2 2 2 2 2 1 1 2 2 2 2 2 3 2 2 2 3 3 4 4 5
4 4 6 7 7 7 7 7 8 6 5 4 4 3 4 4 4 4 4 4 3 2 2 2 2 2 2 2 1 2 2 3 3 2 3 2 3 4 3 3 4 4 5
2 3 5 6 7 7 7 8 7 5 4 3 4 5 4 4 4 4 4 3 3 2 2 2 2 2 2 2 2 1 2 2 3 4 4 4 4 4 4 4 4 4 5
1 2 3 5 6 7 7 7 7 7 6 6 6 5 4 3 3 3 3 3 3 2 2 2 2 2 1 2 2 2 2 2 3 4 5 5 5 4 4 4 3 4 5
Wind_Direction
155 150 143 141 138 133 130 129 129 128 126 123 121 118 117 114 111 108 104 103 102 101 99 96 94 93 90 87 86 85 83 80 78 77 75 74 73 71 67 60 64 68 64
149 149 143 140 139 136 132 129 127 126 126 125 123 120 118 116 114 110 107 104 102 101 99 97 95 92 90 87 86 86 84 82 80 79 81 80 73 70 68 63 58 63 63
147 147 146 141 140 138 134 131 128 126 126 125 124 121 119 117 115 112 109 106 103 101 98 96 94 92 90 88 87 85 84 82 80 79 80 77 76 70 69 66 64 65 63
148 149 148 142 141 139 136 133 131 128 125 125 125 123 122 119 116 113 109 107 105 102 100 97 95 94 92 90 88 86 83 81 76 72 71 70 72 70 67 66 63 62 60
150 150 144 143 141 140 138 135 132 130 128 126 124 123 123 121 118 115 112 109 107 104 102 100 99 97 95 93 91 88 85 83 78 74 72 71 71 69 65 66 63 60 58
151 149 146 145 143 141 139 137 135 132 130 128 125 123 122 122 118 116 114 112 109 108 107 103 101 100 99 96 94 90 87 84 83 74 70 69 69 69 66 66 62 57 55
152 149 149 146 143 142 141 139 137 134 132 130 127 125 123 120 119 118 116 114 111 109 109 107 104 101 99 97 95 91 86 77 76 75 71 68 65 63 60 59 55 51 49
151 149 147 144 141 142 141 140 138 136 134 131 128 126 124 122 119 117 116 116 113 111 110 108 104 101 97 95 95 92 84 76 82 74 71 69 63 60 55 52 49 45 42
152 149 148 151 147 142 140 139 137 136 134 132 129 127 125 122 120 117 115 115 114 113 111 109 106 102 97 95 93 90 82 69 73 71 68 66 61 56 53 48 43 40 37
154 153 153 154 154 152 148 140 137 135 134 131 129 127 124 121 119 117 116 113 113 113 113 110 108 104 100 95 92 90 86 84 72 69 65 66 59 56 53 46 39 36 31
158 157 157 156 155 154 151 146 141 137 134 133 130 128 132 132 128 124 115 112 110 111 112 111 109 106 106 101 94 89 86 71 70 61 60 59 55 52 47 39 32 28 24
165 163 161 158 156 154 151 151 151 148 147 147 145 144 141 135 128 123 115 111 110 110 112 110 112 119 123 113 109 112 81 72 65 65 58 50 42 39 35 29 23 21 21
167 164 162 160 158 155 152 155 153 150 152 152 152 149 142 135 132 131 129 123 120 121 119 122 133 126 116 105 100 86 67 61 65 64 57 45 33 27 25 24 20 21 23
168 168 163 159 158 158 155 155 154 153 154 153 155 155 151 143 141 138 134 132 132 129 128 131 127 127 122 119 109 93 84 69 64 65 57 45 34 24 19 18 19 18 18
171 168 165 161 160 157 153 153 154 154 155 153 154 159 159 152 148 143 140 137 134 131 136 138 142 140 136 119 108 94 82 76 70 71 72 56 37 23 17 15 15 14 16
170 169 166 164 160 153 151 154 154 152 149 150 152 157 160 156 153 152 148 142 137 139 137 147 151 155 150 144 137 97 55 54 59 63 68 70 56 34 25 18 16 17 13
173 167 167 164 160 154 151 151 147 150 150 150 151 154 156 154 156 158 154 149 144 149 148 146 149 157 148 156 174 175 324 343 59 94 50 16 41 53 35 22 19 14 9
173 170 168 163 162 158 154 151 141 145 147 148 150 152 157 158 161 158 153 153 148 150 157 150 162 168 173 188 212 217 229 216 212 70 19 30 20 24 40 34 20 12 8
174 172 169 166 163 158 152 145 140 137 139 144 149 150 155 157 161 159 154 148 151 153 160 156 166 182 188 235 305 299 280 251 205 179 123 48 28 6 360 28 21 9 1
168 169 168 166 163 153 148 143 137 134 135 136 141 146 154 155 160 159 149 147 150 153 155 160 151 149 168 231 277 316 298 258 221 209 234 10 20 359 350 347 342 350 355
168 167 167 167 166 160 162 164 161 157 151 143 135 142 151 151 151 150 146 147 152 163 167 176 165 153 149 221 251 268 253 234 234 227 260 267 335 345 341 338 333 330 331
177 173 170 169 170 171 172 169 162 153 145 141 139 139 149 147 146 148 153 159 159 163 165 173 175 196 204 242 278 277 264 233 222 242 249 268 293 315 326 330 330 328 327
181 180 178 177 171 169 162 149 139 133 129 141 153 155 154 150 149 150 155 156 169 181 185 190 197 207 218 225 283 278 275 275 290 226 238 253 280 295 308 322 322 324 324
190 183 177 176 169 165 164 167 167 172 171 182 171 160 150 145 142 147 152 156 161 172 188 194 204 219 217 222 236 281 289 299 279 273 242 249 277 281 290 306 309 313 318
187 183 178 172 171 167 171 174 173 171 163 155 153 149 147 137 137 141 148 151 153 156 175 188 195 206 220 229 232 245 259 270 267 271 276 279 277 270 280 290 296 306 315
175 187 179 173 172 171 174 179 178 169 159 157 164 161 154 144 138 139 142 143 145 147 161 176 186 191 210 229 239 245 258 263 269 267 275 286 283 278 278 272 278 297 310
Height
1532 1534 1536 1538 1540 1542 1544 1545 1546 1547 1548 1549 1550 1550 1551 1552 1552 1553 1553 1553 1553 1553 1553 1553 1553 1553 1552 1552 1552 1551 1551 1550 1550 1550 1549 1549 1548 1548 1547 1547 1547 1546 1545
1531 1534 1536 1539 1541 1543 1544 1546 1547 1548 1549 1550 1551 1552 1552 1553 1554 1554 1554 1555 1555 1555 1555 1555 1554 1554 1554 1553 1553 1553 1552 1552 1552 1551 1551 1550 1550 1549 1549 1548 1548 1547 1546
1531 1534 1537 1539 1541 1543 1545 1547 1548 1549 1550 1551 1552 1553 1554 1554 1555 1555 1556 1556 1556 1556 1556 1556 1556 1555 1555 1555 1554 1554 1554 1553 1553 1553 1553 1553 1551 1551 1550 1549 1549 1548 1547
1532 1535 1537 1540 1542 1544 1546 1547 1549 1550 1551 1552 1553 1554 1555 1555 1556 1557 1557 1557 1557 1557 1557 1557 1557 1557 1556 1556 1556 1555 1555 1555 1554 1554 1554 1554 1553 1552 1551 1550 1550 1549 1548
1533 1536 1538 1540 1543 1545 1546 1548 1550 1551 1552 1553 1554 1555 1556 1556 1557 1558 1558 1558 1558 1558 1558 1558 1558 1558 1557 1557 1557 1556 1556 1556 1555 1555 1555 1554 1554 1553 1552 1551 1551 1550 1549
1534 1536 1538 1541 1543 1545 1547 1549 1550 1552 1553 1554 1555 1556 1556 1557 1558 1558 1559 1559 1559 1559 1559 1559 1559 1559 1558 1558 1558 1557 1557 1557 1557 1556 1556 1555 1555 1554 1553 1552 1551 1550 1549
1534 1537 1539 1541 1544 1546 1548 1550 1551 1552 1553 1554 1556 1556 1557 1558 1559 1559 1560 1560 1560 1560 1560 1560 1560 1559 1559 1559 1558 1558 1558 1557 1557 1557 1557 1556 1555 1554 1554 1553 1552 1551 1550
1534 1537 1539 1542 1544 1547 1548 1550 1552 1553 1554 1555 1556 1557 1558 1559 1560 1560 1560 1561 1561 1561 1561 1561 1561 1560 1560 1559 1559 1559 1558 1558 1558 1558 1557 1557 1556 1555 1554 1553 1552 1551 1550
1535 1537 1539 1542 1545 1547 1549 1551 1552 1554 1555 1556 1557 1558 1559 1560 1560 1561 1561 1561 1562 1562 1562 1561 1561 1561 1561 1560 1560 1560 1559 1559 1560 1559 1558 1557 1556 1556 1555 1553 1553 1551 1550
1535 1537 1540 1542 1545 1547 1549 1551 1552 1554 1556 1557 1558 1559 1560 1560 1561 1561 1562 1562 1562 1562 1562 1562 1562 1562 1561 1561 1561 1560 1560 1560 1560 1559 1559 1558 1557 1556 1555 1554 1553 1552 1550
1534 1537 1539 1542 1544 1546 1549 1550 1553 1554 1556 1557 1558 1559 1560 1561 1562 1562 1562 1563 1563 1563 1563 1563 1562 1562 1562 1561 1561 1561 1560 1561 1560 1560 1559 1558 1557 1556 1555 1554 1553 1551 1550
1533 1535 1538 1540 1543 1545 1548 1550 1552 1554 1555 1557 1558 1559 1560 1561 1562 1562 1562 1563 1563 1563 1563 1563 1563 1562 1562 1562 1561 1561 1561 1561 1560 1560 1558 1557 1557 1556 1555 1554 1552 1551 1550
1532 1534 1537 1539 1542 1544 1546 1549 1551 1553 1554 1556 1557 1559 1560 1560 1561 1562 1562 1562 1563 1563 1563 1563 1562 1562 1562 1562 1561 1561 1561 1560 1560 1559 1558 1557 1556 1555 1554 1553 1552 1550 1549
1530 1533 1535 1538 1540 1543 1545 1547 1549 1551 1553 1555 1556 1557 1559 1560 1560 1561 1562 1562 1562 1562 1562 1562 1562 1562 1562 1562 1561 1561 1560 1560 1559 1558 1557 1556 1556 1555 1554 1552 1551 1550 1548
1529 1531 1533 1536 1539 1541 1544 1546 1548 1550 1552 1553 1555 1556 1558 1559 1559 1560 1561 1561 1561 1562 1562 1562 1562 1561 1561 1561 1560 1560 1560 1559 1558 1558 1557 1555 1555 1554 1552 1551 1550 1549 1547
1527 1529 1532 1534 1537 1540 1542 1544 1546 1548 1550 1552 1553 1555 1556 1557 1558 1559 1560 1560 1561 1561 1561 1561 1561 1560 1560 1560 1559 1559 1558 1558 1557 1556 1556 1555 1553 1552 1551 1550 1548 1547 1546
1525 1527 1530 1532 1535 1538 1540 1542 1544 1546 1548 1550 1551 1553 1554 1555 1557 1558 1559 1559 1559 1559 1559 1559 1559 1559 1559 1558 1558 1558 1557 1556 1556 1555 1554 1553 1552 1551 1550 1548 1547 1546 1544
1523 1526 1528 1531 1533 1536 1538 1540 1542 1544 1546 1548 1550 1551 1553 1554 1555 1556 1557 1557 1558 1558 1558 1558 1558 1558 1557 1557 1557 1556 1555 1555 1554 1553 1552 1552 1551 1550 1548 1547 1545 1544 1542
1521 1524 1527 1529 1531 1534 1536 1538 1540 1542 1544 1546 1548 1549 1551 1552 1553 1554 1555 1556 1556 1556 1556 1556 1556 1556 1556 1555 1555 1554 1553 1553 1552 1551 1551 1550 1549 1548 1546 1545 1543 1542 1540
1520 1522 1525 1528 1530 1532 1534 1536 1538 1540 1542 1544 1546 1547 1549 1550 1551 1552 1553 1553 1554 1554 1555 1555 1555 1554 1554 1554 1553 1552 1551 1550 1550 1549 1549 1548 1547 1546 1544 1543 1541 1539 1537
1518 1520 1523 1526 1528 1530 1532 1533 1535 1537 1539 1542 1544 1545 1547 1548 1549 1550 1551 1551 1552 1552 1553 1553 1553 1553 1552 1552 1551 1551 1549 1549 1548 1547 1546 1546 1545 1543 1542 1540 1538 1537 1535
1515 1518 1521 1523 1526 1528 1530 1532 1534 1536 1537 1539 1541 1543 1544 1545 1546 1547 1548 1549 1550 1550 1551 1551 1551 1551 1550 1550 1550 1549 1549 1549 1546 1545 1544 1543 1542 1541 1539 1538 1536 1534 1532
1513 1516 1518 1521 1523 1525 1527 1530 1532 1533 1535 1537 1539 1540 1542 1543 1544 1545 1546 1547 1547 1548 1548 1548 1549 1549 1548 1548 1548 1548 1548 1547 1545 1543 1541 1540 1539 1538 1537 1535 1533 1531 1529
1511 1514 1516 1518 1520 1523 1525 1527 1529 1531 1531 1534 1536 1538 1539 1540 1541 1542 1543 1544 1545 1545 1546 1546 1546 1546 1546 1545 1545 1545 1545 1544 1544 1541 1539 1538 1536 1535 1533 1532 1530 1528 1526
1509 1511 1514 1516 1518 1521 1523 1525 1527 1528 1530 1532 1534 1535 1536 1537 1539 1539 1540 1541 1542 1542 1543 1543 1544 1544 1543 1543 1543 1542 1541 1541 1540 1540 1537 1535 1533 1532 1530 1529 1527 1525 1523
1506 1508 1511 1514 1516 1518 1520 1523 1524 1526 1528 1530 1531 1532 1533 1534 1536 1537 1538 1538 1539 1540 1540 1541 1541 1540 1540 1540 1540 1539 1539 1539 1538 1537 1535 1532 1530 1528 1527 1525 1524 1522 1520